1393681833167,0.000170195
1393681893167,0.000170054
1393681953167,0.000169276
1393682013167,0.000170071
1393682073167,0.000171051
1393682133167,0.000170495
1393682193167,0.000169510
1393682253167,0.000166930
1393682313167,0.000169146
1393682373167,0.000169477
1393682433180,0.000169971
1393682493180,0.000168635
1393682553180,0.000169154
1393682613180,0.000170282
1393682673180,0.000172811
1393682733180,0.000173718
1393682793180,0.000172718
1393682853180,0.000172046
1393682913180,0.000169688
1393682973180,0.000169381
1393683033180,0.000169439
1393683093180,0.000169836
1393683153180,0.000170491
1393683213180,0.000169447
1393683273180,0.000168248
1393683333180,0.000166805
1393683393180,0.000167836
1393683453180,0.000167219
1393683513180,0.000166392
1393683573180,0.000168202
1393683633180,0.000169981
1393683693180,0.000170433
1393683753180,0.000167191
1393683813180,0.000167381
1393683873180,0.000168884
1393683933180,0.000169264
1393683993180,0.000166667
1393684053180,0.000166950
1393684113180,0.000168943
1393684173180,0.000168429
1393684233180,0.000168538
1393684293180,0.000168283
1393684353180,0.000168860
1393684413180,0.000169152
1393684473180,0.000166777
1393684533180,0.000170073
1393684593180,0.000167447
1393684653180,0.000167396
1393684713180,0.000166703
1393684773180,0.000167880
1393684833180,0.000168281
1393684893180,0.000166446
1393684953180,0.000169354
1393685013180,0.000168778
1393685073180,0.000168642
1393685133180,0.000168386
1393685193180,0.000166922
1393685253180,0.000170305
1393685313180,0.000168795
1393685373180,0.000170580
1393685433180,0.000169018
1393685493180,0.000168540
1393685553180,0.000168323
1393685613180,0.000168871
1393685673180,0.000168761
1393685733180,0.000168279
1393685793180,0.000167306
1393685853180,0.000167775
1393685913180,0.000167894
1393685973180,0.000168926
1393686033192,0.000168475
1393686093192,0.000169666
1393686153192,0.000166537
1393686213192,0.000169829
1393686273192,0.000167736
1393686333192,0.000169111
1393686393192,0.000169108
1393686453192,0.000168610
1393686513192,0.000169143
1393686573192,0.000170689
1393686633192,0.000168913
1393686693192,0.000170924
1393686753192,0.000169833
1393686813192,0.000170364
1393686873192,0.000169548
1393686933192,0.000169659
1393686993192,0.000168437
1393687053192,0.000169722
1393687113192,0.000169765
1393687173192,0.000170286
1393687233192,0.000169650
1393687293192,0.000169133
1393687353192,0.000170085
1393687413192,0.000169491
1393687473192,0.000168712
1393687533192,0.000167473
1393687593192,0.000170346
1393687653192,0.000169996
1393687713192,0.000169900
1393687773192,0.000168347
1393687833192,0.000169129
1393687893192,0.000166913
1393687953192,0.000169022
1393688013192,0.000167750
1393688073192,0.000168765
1393688133192,0.000168425
1393688193192,0.000169748
1393688253192,0.000168566
1393688313192,0.000168804
1393688373192,0.000169632
1393688433192,0.000169205
1393688493192,0.000170498
1393688553192,0.000169932
1393688613192,0.000171796
1393688673192,0.000171565
1393688733192,0.000171452
1393688793192,0.000171285
1393688853192,0.000171491
1393688913192,0.000173127
1393688973192,0.000173011
1393689033192,0.000174457
1393689093192,0.000176867
1393689153192,0.000175274
1393689213192,0.000175303
1393689273192,0.000173175
1393689333192,0.000173002
1393689393192,0.000176083
1393689453192,0.000174333
1393689513192,0.000178955
1393689573192,0.000178302
1393689633205,0.000177392
1393689693205,0.000173651
1393689753205,0.000173338
1393689813205,0.000171500
1393689873205,0.000172220
1393689933205,0.000169190
1393689993205,0.000168887
1393690053205,0.000171387
1393690113205,0.000171112
1393690173205,0.000170498
1393690233205,0.000171590
1393690293205,0.000171093
1393690353205,0.000171178
1393690413205,0.000170610
1393690473205,0.000171034
1393690533205,0.000170518
1393690593205,0.000169751
1393690653205,0.000169365
1393690713205,0.000170138
1393690773205,0.000169169
1393690833205,0.000169188
1393690893205,0.000168773
1393690953205,0.000169204
1393691013205,0.000170027
1393691073205,0.000169352
1393691133205,0.000170575
1393691193205,0.000169767
1393691253205,0.000168904
1393691313205,0.000169885
1393691373205,0.000170050
1393691433205,0.000169120
1393691493205,0.000166965
1393691553205,0.000169748
1393691613205,0.000170515
1393691673205,0.000169999
1393691733205,0.000171739
1393691793205,0.000169978
1393691853205,0.000169500
1393691913205,0.000170814
1393691973205,0.000171378
1393692033205,0.000170170
1393692093205,0.000171154
1393692153205,0.000171555
1393692213205,0.000170020
1393692273205,0.000169669
1393692333205,0.000172750
1393692393205,0.000171567
1393692453205,0.000171680
1393692513205,0.000170161
1393692573205,0.000172413
1393692633205,0.000172515
1393692693205,0.000171176
1393692753205,0.000171032
1393692813205,0.000172292
1393692873205,0.000170186
